India Forums Logo

Saath Nibhaana Saathiya

India Forums > Forum Index > Saath Nibhaana Saathiya
Saath Nibhaana Saathiya, launches May 3rd, Mon- Friday at 7 pm only on Star Plus.
...
<< | 385 | 386 | 387 | 388 | 389 | 390 | 391 | 392 | 393 | 394 | 395 | 396 | 397 | 398 | 399 | 400 | 401 | 402 | 403 | ... >>
TIDTopic SubjectStart DateLast Entry
3281105The real Rucha11/8/2012 7:49:34 PM11/8/2012 9:27:17 PM
3281189No promo yet?11/8/2012 9:18:24 PM11/8/2012 10:01:51 PM
3281252My wish for a future track11/8/2012 10:03:53 PM11/9/2012 7:11:57 AM
3281253Does it mean?11/8/2012 10:04:00 PM11/9/2012 6:43:43 AM
3281343ME Promo WU!!!11/8/2012 11:08:57 PM11/9/2012 1:26:04 PM
3281662ME promo link11/9/2012 2:58:25 AM11/9/2012 10:00:50 AM
3281977Buzz will go waste..pl respond11/9/2012 6:59:32 AM11/12/2012 12:42:27 AM
3282041WU 9TH NOV modi's dewali tash party11/9/2012 7:23:42 AM11/10/2012 1:55:51 AM
3282520Lets Play... !!11/9/2012 10:18:04 AM11/9/2012 4:26:56 PM
3282637Vishal new pic11/9/2012 10:55:52 AM11/10/2012 9:24:13 AM
3282754Are u lukin forward11/9/2012 11:50:07 AM11/10/2012 12:33:33 AM
3282916When will Kokila catch Rashi11/9/2012 1:35:08 PM11/13/2012 4:06:23 AM
3282919Kinjal is digging her own grave11/9/2012 1:37:30 PM11/10/2012 7:39:46 AM
3283040How to become a Maharani - By Rashi Modi11/9/2012 5:00:21 PM11/10/2012 7:43:56 AM
3283554Is there any option?11/10/2012 2:59:45 AM11/11/2012 7:27:54 AM
3283735Will Rashi and Gopi manage the Diwali celebrations11/10/2012 5:23:52 AM11/10/2012 6:20:38 AM
3283809Will Rashi and Gopi manage Diwali celebrations?11/10/2012 6:15:09 AM11/10/2012 9:29:40 AM
3283935Live updates for ME??11/10/2012 7:37:28 AM11/10/2012 8:54:05 AM
3284015FF: The Tempest, chapter 11 - Epilogue, p 3211/10/2012 8:19:40 AM10/27/2013 11:36:16 AM
3284117Im hating it!!11/10/2012 9:12:53 AM11/10/2012 10:11:57 AM
3284150MAHAEPISODE Update Nov. 10th, 201211/10/2012 9:31:44 AM11/11/2012 10:09:56 PM
3284267Short ME update11/10/2012 10:48:10 AM11/10/2012 12:12:05 PM
3284412Poor Gopi ...11/10/2012 12:46:00 PM11/11/2012 11:51:50 PM
3284415Rashi's Sari ...11/10/2012 12:50:53 PM11/11/2012 7:30:36 AM
3284479Nov 10 ME pics11/10/2012 2:18:25 PM11/13/2012 3:01:13 AM
3284491The celebrations - And some lessons learnt11/10/2012 2:34:35 PM11/11/2012 11:45:41 AM
3284554DNA: Bringing home prosperity-Nazim11/10/2012 5:34:09 PM11/11/2012 7:38:26 AM
3285091I wish11/11/2012 2:41:00 AM11/12/2012 9:43:04 AM
3285860Bombay Times-Article on Nazim11/11/2012 10:45:02 AM11/13/2012 3:00:29 AM
3285941Scene11/11/2012 11:36:10 AM11/12/2012 4:53:31 AM
3285964Funny character11/11/2012 11:50:09 AM11/12/2012 10:06:01 AM
3286630happy diwali11/12/2012 12:41:45 AM11/12/2012 9:57:50 AM
3286641CM down by 3 :'( :'(11/12/2012 12:45:35 AM11/12/2012 9:51:47 AM
3286866TV9, SBB and SBS WU11/12/2012 2:53:04 AM11/12/2012 9:58:50 AM
3287173tellybuzz article on Naaz.11/12/2012 5:32:57 AM11/12/2012 9:59:23 AM
3287191Dang!11/12/2012 5:44:59 AM11/12/2012 12:37:56 PM
3287357WU 12.11.2012 - Goshi still not on talking terms11/12/2012 7:40:00 AM11/13/2012 2:59:14 AM
3287668Peep in guys!! Imp11/12/2012 9:33:03 AM11/12/2012 9:45:34 AM
3287677Teri bhi chup Aur Meri bhi chup...!!11/12/2012 9:36:43 AM11/12/2012 9:55:55 PM
3287820Happy Diwali!11/12/2012 10:33:12 AM11/12/2012 12:09:56 PM
3287932bad news from hansa she has lost11/12/2012 11:15:27 AM11/13/2012 12:30:28 AM
328798712th Nov Saatiya EngSubs Video+Precap WO/Dl/Pic11/12/2012 11:42:14 AM11/13/2012 12:29:54 AM
3288027Sharing - Happiness and duty11/12/2012 11:54:06 AM11/14/2012 5:00:20 AM
3288111Mon 12/11/2012 some pics11/12/2012 12:37:47 PM11/13/2012 2:59:51 AM
3288237Pregnancy = handicap?11/12/2012 1:47:29 PM12/2/2012 11:19:29 AM
3288332Rashi11/12/2012 3:54:42 PM11/15/2012 3:54:19 AM
3288470I love Saathiyaa11/12/2012 7:45:24 PM11/13/2012 9:27:29 AM
3288515Where are the men??11/12/2012 8:23:14 PM11/13/2012 10:29:18 PM
3288642Diwali :)11/12/2012 10:28:18 PM11/13/2012 2:18:39 AM
3288679Saathiya Of the Week 1 #11/12/2012 10:56:02 PM11/19/2012 8:48:56 PM
3288684GOTW 1 #: Keep counting11/12/2012 10:59:47 PM11/19/2012 9:10:07 PM
3288691OS: Celebrations11/12/2012 11:03:03 PM11/16/2012 9:06:58 PM
3288762Mere tumhare sabke liye...11/13/2012 12:07:04 AM11/13/2012 12:20:00 AM
3289076ff:[EHSAAS] Diwali Special Promo!!!11/13/2012 3:23:23 AM11/13/2012 3:23:23 AM
3289422mysterious geography of MM!11/13/2012 6:49:28 AM11/13/2012 3:09:54 PM
3289426WU- 13/11/2012- Slippers and Bells - Naya karnama11/13/2012 6:52:41 AM11/14/2012 4:27:49 AM
328960813th Nov Saatiya HD-EngSubs Video+Precap WO/Dl/Pic11/13/2012 8:17:50 AM11/14/2012 2:29:20 PM
3289718Article - Movers & Crackers11/13/2012 8:58:03 AM11/13/2012 3:20:57 PM
3289786101 to 41! What a bomb for this diwali!11/13/2012 9:28:07 AM11/13/2012 8:40:20 PM
3289890I wanna Feel The Same.. :(11/13/2012 10:13:44 AM11/13/2012 3:57:56 PM
3290305100% calorie free!!11/13/2012 2:29:35 PM11/13/2012 3:05:47 PM
3290320Just One Word11/13/2012 2:52:06 PM11/14/2012 6:54:43 PM
3290346Notice the analogy11/13/2012 3:25:58 PM11/13/2012 3:25:58 PM
3290629Vote for your member of the Week Siggy11/13/2012 10:36:55 PM11/17/2012 11:27:46 PM
3291293hopes dashed! :(11/14/2012 6:55:46 AM11/14/2012 7:01:51 PM
3291345WU 14TH NOV Helping each other...11/14/2012 7:26:42 AM11/15/2012 3:30:29 AM
329147914th Nov Saatiya HD-EngSubs Video+Precap WO/Dl/Pic11/14/2012 8:29:18 AM11/14/2012 2:29:56 PM
3291739At times.. Edited11/14/2012 10:13:41 AM11/14/2012 12:32:12 PM
3291792If you were the CV11/14/2012 10:43:41 AM11/14/2012 1:48:00 PM
3291839Today realized power of Modi men(younger)!!11/14/2012 11:08:06 AM11/14/2012 11:20:24 AM
3291874Silent Killer11/14/2012 11:26:45 AM11/14/2012 1:12:30 PM
3291952Appreciating Dhruvie11/14/2012 12:19:40 PM11/17/2012 11:02:37 PM
3291976Disgusting!!11/14/2012 12:40:06 PM11/14/2012 1:18:18 PM
3292084Continuity in SNS11/14/2012 2:50:46 PM11/14/2012 6:47:07 PM
3292177The SNS Forum is dying11/14/2012 6:26:54 PM11/17/2012 8:25:59 AM
<< | 385 | 386 | 387 | 388 | 389 | 390 | 391 | 392 | 393 | 394 | 395 | 396 | 397 | 398 | 399 | 400 | 401 | 402 | 403 | ... >>